Volver al catálogo

SL-8 DEB

ActivoLEO
NORAD 21115·DEBRIS·🇷🇺 Russia

Lanzado Feb 12, 1991 desde Plesetsk Cosmodrome

Loading…

Próximos Pases (próximas 24 horas)

TLE

ActualizadoSource: Space-Track

Época: Sep 14, 2026, 05:53 UTC

1 21115U 91009M   26257.24554823 -.00000087  00000-0 -68343-3 0  9998
2 21115  74.0393 185.5534 0183557 274.8371 239.9261 12.16943311580017

Sigue SL-8 DEB en tiempo real con AllMySat

Download on the App Store